User: anonymous
Location: Unspecified
(0.0000°N, 0.0000°E)
Time: 08:09:11
(UTC+00:00)
Language:

Courier 1B - Orbit

View from above orbital plane
View from above orbital plane
View from above satellite
View from above satellite

Ground track
Ground track

The orbit data is extracted from the following two-line orbital elements,

1 00058U 60013A   14292.73717625  .00000103  00000-0  23135-4 0  7944
2 00058 028.3270 144.4521 0165114 230.8211 127.7562 13.46282464660296
Epoch (UTC): 19 October 2014 17:41:32
Eccentricity: 0.0165114
inclination: 28.3270°
perigee height: 963 km
apogee height: 1209 km
right ascension of ascending node: 144.4521°
argument of perigee: 230.8211°
revolutions per day: 13.46282464
mean anomaly at epoch: 127.7562°
orbit number at epoch: 66029

The dashed part of the orbit path shows where the satellite is in the earth's shadow,  

DLR